User: anonymous   Login
Location: Bednik
(45.3500°N, 16.3833°E)
Time: 17:26:03
(UTC+00:00)
Language:

USA 238 - Orbit

View from above orbital plane
View from above orbital plane
View from above satellite
View from above satellite

Ground track
Ground track

The orbit data is extracted from the following two-line orbital elements,

1 38758U 12048A   20289.19730040 0.00000000  00000-0  00000-0 0    04
2 38758  63.4276  86.5788 0133940   0.6021 359.3979 13.40810665    01
Epoch (UTC): 15 October 2020 04:44:06
Eccentricity: 0.0133940
inclination: 63.4276°
perigee height: 1006 km
apogee height: 1206 km
right ascension of ascending node: 86.5788°
argument of perigee: 0.6021°
revolutions per day: 13.40810665
mean anomaly at epoch: 359.3979°
orbit number at epoch: 0

The dashed part of the orbit path shows where the satellite is in the earth's shadow,  

DLR